| time (UTC) | temp F | wind direction | speed MPH | gust MPH | rain 1hr in | rain 24hr in | rain mn in | humidity % | barometer mb |
| 20260505001516 | 55 | 113 | 3.0 | 4.0 | 0.00 | 0.00 | 0.00 | 65 | 1006.2 |
| 20260505000517 | 56 | 113 | 3.0 | 4.0 | 0.00 | 0.00 | 0.00 | 64 | 1006.2 |
| 20260504235516 | 56 | 113 | 3.0 | 4.0 | 0.00 | 0.00 | 0.00 | 63 | 1006.2 |
| 20260504234516 | 57 | 113 | 2.0 | 4.0 | 0.00 | 0.00 | 0.00 | 63 | 1006.2 |
| 20260504233516 | 58 | 113 | 2.0 | 4.0 | 0.00 | 0.00 | 0.00 | 63 | 1006.0 |
| 20260504232516 | 59 | 135 | 2.0 | 4.0 | 0.00 | 0.00 | 0.00 | 62 | 1005.9 |
| 20260504231516 | 60 | 135 | 3.0 | 6.0 | 0.00 | 0.00 | 0.00 | 61 | 1005.7 |
| 20260504230535 | 61 | 113 | 2.0 | 4.0 | 0.00 | 0.00 | 0.00 | 60 | 1005.6 |
| 20260504225515 | 62 | 135 | 2.0 | 4.0 | 0.00 | 0.00 | 0.00 | 57 | 1005.4 |
| 20260504224556 | 63 | 158 | 2.0 | 3.0 | 0.00 | 0.00 | 0.00 | 55 | 1005.3 |
| 20260504223515 | 64 | 135 | 3.0 | 5.0 | 0.00 | 0.00 | 0.00 | 53 | 1005.2 |
| 20260504222515 | 64 | 135 | 1.0 | 2.0 | 0.00 | 0.00 | 0.00 | 53 | 1005.3 |
| 20260504221536 | 64 | 135 | 1.0 | 2.0 | 0.00 | 0.00 | 0.00 | 53 | 1005.2 |
| 20260504220536 | 63 | 135 | 1.0 | 3.0 | 0.00 | 0.00 | 0.00 | 54 | 1005.2 |
| 20260504215515 | 64 | 270 | 1.0 | 3.0 | 0.00 | 0.00 | 0.00 | 50 | 1005.3 |
| 20260504214516 | 65 | 248 | 3.0 | 5.0 | 0.00 | 0.00 | 0.00 | 49 | 1005.2 |
| 20260504213519 | 64 | 270 | 2.0 | 4.0 | 0.00 | 0.00 | 0.00 | 50 | 1005.2 |
| 20260504212517 | 64 | 248 | 2.0 | 4.0 | 0.00 | 0.00 | 0.00 | 52 | 1005.1 |
| 20260504211517 | 64 | 248 | 2.0 | 4.0 | 0.00 | 0.00 | 0.00 | 50 | 1005.2 |
| 20260504210517 | 64 | 248 | 3.0 | 6.0 | 0.00 | 0.00 | 0.00 | 50 | 1005.3 |
| 20260504205518 | 65 | 248 | 4.0 | 11.0 | 0.00 | 0.00 | 0.00 | 48 | 1005.3 |
| 20260504204517 | 65 | 248 | 3.0 | 7.0 | 0.00 | 0.00 | 0.00 | 49 | 1005.3 |
| 20260504203517 | 65 | 248 | 5.0 | 11.0 | 0.00 | 0.00 | 0.00 | 50 | 1005.2 |
| 20260504202517 | 65 | 248 | 4.0 | 7.0 | 0.00 | 0.00 | 0.00 | 50 | 1005.2 |
| 20260504201519 | 64 | 248 | 5.0 | 10.0 | 0.00 | 0.00 | 0.00 | 51 | 1005.2 |
| 20260504200537 | 64 | 270 | 3.0 | 10.0 | 0.00 | 0.00 | 0.00 | 54 | 1005.3 |
| 20260504195540 | 62 | 270 | 1.0 | 3.0 | 0.00 | 0.00 | 0.00 | 61 | 1005.3 |
| 20260504194518 | 61 | 225 | 1.0 | 3.0 | 0.00 | 0.00 | 0.00 | 63 | 1005.5 |
| 20260504193517 | 60 | 338 | 2.0 | 5.0 | 0.00 | 0.00 | 0.00 | 64 | 1005.4 |
| 20260504192520 | 59 | 270 | 2.0 | 7.0 | 0.00 | 0.00 | 0.00 | 64 | 1005.5 |
| 20260504191537 | 59 | 248 | 2.0 | 10.0 | 0.00 | 0.00 | 0.00 | 64 | 1005.6 |
| 20260504190517 | 59 | 270 | 1.0 | 5.0 | 0.00 | 0.00 | 0.00 | 67 | 1005.7 |
| 20260504185517 | 57 | 270 | 1.0 | 4.0 | 0.00 | 0.00 | 0.00 | 69 | 1005.9 |
| 20260504184517 | 57 | 315 | 2.0 | 4.0 | 0.00 | 0.00 | 0.00 | 68 | 1005.9 |
| 20260504183537 | 58 | 293 | 1.0 | 2.0 | 0.00 | 0.00 | 0.00 | 69 | 1005.8 |
| 20260504182517 | 57 | 270 | 1.0 | 2.0 | 0.00 | 0.01 | 0.00 | 69 | 1005.9 |
| 20260504181517 | 58 | 293 | 1.0 | 3.0 | 0.00 | 0.01 | 0.00 | 68 | 1006.0 |
| 20260504180517 | 57 | 270 | 1.0 | 3.0 | 0.00 | 0.01 | 0.00 | 66 | 1006.0 |
| 20260504175517 | 57 | 225 | 2.0 | 6.0 | 0.00 | 0.01 | 0.00 | 66 | 1005.9 |
| 20260504174517 | 58 | 225 | 2.0 | 3.0 | 0.00 | 0.01 | 0.00 | 63 | 1006.1 |
| 20260504173517 | 59 | 203 | 3.0 | 6.0 | 0.00 | 0.01 | 0.00 | 55 | 1005.8 |
| 20260504172537 | 60 | 225 | 3.0 | 7.0 | 0.00 | 0.01 | 0.00 | 52 | 1005.5 |
| 20260504171517 | 60 | 203 | 4.0 | 6.0 | 0.00 | 0.01 | 0.00 | 52 | 1005.3 |
| 20260504170517 | 62 | 158 | 4.0 | 11.0 | 0.00 | 0.01 | 0.00 | 50 | 1005.1 |
| 20260504150519 | 58 | 248 | 5.0 | 15.0 | 0.00 | 0.07 | 0.00 | 59 | 1006.3 |
| 20260504140516 | 56 | 248 | 3.0 | 6.0 | 0.00 | 0.12 | 0.00 | 61 | 1007.2 |
| 20260504130516 | 50 | 225 | 3.0 | 6.0 | 0.00 | 0.13 | 0.00 | 64 | 1007.9 |
| 20260504110516 | 39 | 180 | 1.0 | 2.0 | 0.00 | 0.19 | 0.00 | 76 | 1008.2 |
| 20260504100516 | 38 | 180 | 1.0 | 2.0 | 0.00 | 0.21 | 0.00 | 73 | 1008.1 |
| 20260504081518 | 37 | 248 | 1.0 | 3.0 | 0.00 | 0.23 | 0.00 | 77 | 1007.8 |
| 20260504080517 | 36 | 248 | 1.0 | 3.0 | 0.00 | 0.23 | 0.00 | 77 | 1007.8 |
| 20260504050517 | 39 | 293 | 1.0 | 2.0 | 0.00 | 0.23 | 0.00 | 72 | 1007.2 |
| 20260504045517 | 39 | 293 | 1.0 | 2.0 | 0.00 | 0.23 | 0.00 | 73 | 1007.2 |
| 20260504044522 | 39 | 293 | 2.0 | 3.0 | 0.00 | 0.23 | 0.00 | 74 | 1007.2 |
| 20260504043518 | 39 | 270 | 2.0 | 3.0 | 0.00 | 0.23 | 0.00 | 74 | 1007.2 |
| 20260504042517 | 39 | 270 | 2.0 | 3.0 | 0.00 | 0.23 | 0.00 | 73 | 1007.2 |
| 20260504041536 | 39 | 270 | 1.0 | 3.0 | 0.00 | 0.23 | 0.00 | 71 | 1007.2 |
| 20260504040517 | 40 | 270 | 1.0 | 2.0 | 0.00 | 0.23 | 0.00 | 69 | 1007.1 |
| 20260504035516 | 40 | 270 | 2.0 | 3.0 | 0.00 | 0.23 | 0.23 | 68 | 1006.9 |
| 20260504034516 | 40 | 270 | 2.0 | 4.0 | 0.00 | 0.23 | 0.23 | 69 | 1006.8 |
| 20260504033537 | 40 | 293 | 1.0 | 3.0 | 0.00 | 0.23 | 0.23 | 69 | 1006.8 |
| 20260504032516 | 40 | 270 | 1.0 | 2.0 | 0.00 | 0.23 | 0.23 | 69 | 1006.8 |
| 20260504031516 | 41 | 270 | 2.0 | 3.0 | 0.00 | 0.23 | 0.23 | 68 | 1006.8 |
| 20260504030536 | 42 | 270 | 2.0 | 4.0 | 0.00 | 0.23 | 0.23 | 67 | 1006.7 |
| 20260504025516 | 42 | 270 | 2.0 | 4.0 | 0.00 | 0.23 | 0.23 | 66 | 1006.6 |
| 20260504024516 | 42 | 270 | 3.0 | 4.0 | 0.00 | 0.23 | 0.23 | 65 | 1006.5 |
| 20260504023516 | 42 | 270 | 2.0 | 4.0 | 0.00 | 0.23 | 0.23 | 65 | 1006.4 |
| 20260504022536 | 43 | 270 | 2.0 | 4.0 | 0.00 | 0.23 | 0.23 | 64 | 1006.4 |
| 20260504021536 | 43 | 270 | 2.0 | 4.0 | 0.00 | 0.23 | 0.23 | 63 | 1006.3 |
| 20260504020516 | 44 | 270 | 2.0 | 3.0 | 0.00 | 0.23 | 0.23 | 62 | 1006.3 |
| 20260504015536 | 44 | 270 | 2.0 | 4.0 | 0.00 | 0.23 | 0.23 | 60 | 1006.2 |
| 20260504014536 | 44 | 293 | 2.0 | 5.0 | 0.00 | 0.23 | 0.23 | 60 | 1006.2 |
| 20260504013516 | 44 | 248 | 2.0 | 4.0 | 0.00 | 0.23 | 0.23 | 61 | 1006.1 |
| 20260504012516 | 45 | 270 | 2.0 | 9.0 | 0.00 | 0.23 | 0.23 | 60 | 1006.0 |
| 20260504011517 | 45 | 270 | 2.0 | 5.0 | 0.00 | 0.23 | 0.23 | 59 | 1005.8 |
| 20260504010516 | 45 | 270 | 2.0 | 4.0 | 0.00 | 0.23 | 0.23 | 58 | 1005.7 |
| 20260504005516 | 45 | 270 | 3.0 | 5.0 | 0.00 | 0.23 | 0.23 | 57 | 1005.5 |
| 20260504004536 | 46 | 270 | 2.0 | 7.0 | 0.00 | 0.23 | 0.23 | 56 | 1005.3 |
| 20260504003516 | 46 | 270 | 3.0 | 9.0 | 0.00 | 0.23 | 0.23 | 56 | 1005.1 |
| 20260504002536 | 46 | 248 | 2.0 | 7.0 | 0.00 | 0.23 | 0.23 | 56 | 1004.9 |